• In Hungary
  • List of Countries
  • For 7 days
  • Water Temperature
  • Satellite Maps
  • Weather Map
  • News
  • Weather Widgets
  • user-avatar
    Login

    Hourly Weather Cincinnati

    Today, 21 October, Saturday

    Time Temperature Precipitation Wind Pressure Humidity
    00:00 +16°C° 0 mm 2 mps 749 mmHg 79%
    01:00 +16°C° 0 mm 2 mps 749 mmHg 78%
    02:00 +15°C° 0 mm 2 mps 749 mmHg 78%
    03:00 +15°C° 0 mm 2 mps 749 mmHg 78%
    04:00 +14°C° 0 mm 2 mps 749 mmHg 77%
    05:00 +14°C° 0 mm 2 mps 749 mmHg 76%
    06:00 +14°C° 0 mm 1 mps 750 mmHg 79%
    07:00 +16°C° 0 mm 2 mps 750 mmHg 72%
    08:00 +18°C° 0 mm 2 mps 750 mmHg 66%
    09:00 +20°C° 0 mm 2 mps 750 mmHg 59%
    10:00 +21°C° 0 mm 3 mps 750 mmHg 53%
    11:00 +24°C° 0 mm 3 mps 750 mmHg 47%
    12:00 +25°C° 0 mm 3 mps 750 mmHg 41%
    13:00 +25°C° 0 mm 3 mps 750 mmHg 44%
    14:00 +25°C° 0 mm 3 mps 750 mmHg 46%
    15:00 +24°C° 0 mm 2 mps 749 mmHg 48%
    16:00 +23°C° 0 mm 2 mps 749 mmHg 52%
    17:00 +20°C° 0 mm 2 mps 749 mmHg 56%
    18:00 +19°C° 0 mm 2 mps 749 mmHg 60%
    19:00 +18°C° 0 mm 2 mps 749 mmHg 63%
    20:00 +17°C° 0 mm 2 mps 749 mmHg 65%
    21:00 +17°C° 0 mm 2 mps 749 mmHg 68%
    22:00 +16°C° 0 mm 2 mps 749 mmHg 69%
    23:00 +16°C° 0 mm 2 mps 749 mmHg 69%

    Tomorrow, 22 October, Sunday

    Time Temperature Precipitation Wind Pressure Humidity
    00:00 +16°C° 0 mm 2 mps 749 mmHg 70%
    01:00 +15°C° 0 mm 2 mps 749 mmHg 71%
    02:00 +15°C° 0 mm 2 mps 749 mmHg 71%
    03:00 +15°C° 0 mm 2 mps 749 mmHg 72%
    04:00 +15°C° 0 mm 2 mps 749 mmHg 72%
    05:00 +15°C° 0 mm 2 mps 749 mmHg 72%
    06:00 +13°C° 0 mm 3 mps 749 mmHg 72%
    07:00 +16°C° 0 mm 3 mps 749 mmHg 66%
    08:00 +18°C° 0 mm 4 mps 749 mmHg 61%
    09:00 +20°C° 0 mm 5 mps 750 mmHg 55%
    10:00 +22°C° 0 mm 5 mps 749 mmHg 52%
    11:00 +23°C° 0 mm 6 mps 748 mmHg 49%
    12:00 +26°C° 0 mm 6 mps 748 mmHg 46%
    13:00 +26°C° 0 mm 6 mps 747 mmHg 47%
    14:00 +26°C° 0 mm 5 mps 747 mmHg 47%
    15:00 +26°C° 0 mm 5 mps 746 mmHg 48%
    16:00 +23°C° 0 mm 4 mps 746 mmHg 53%
    17:00 +21°C° 0 mm 4 mps 746 mmHg 59%
    18:00 +20°C° 0 mm 3 mps 746 mmHg 64%
    19:00 +20°C° 0 mm 3 mps 746 mmHg 63%
    20:00 +20°C° 0 mm 3 mps 745 mmHg 62%
    21:00 +19°C° 0 mm 4 mps 745 mmHg 61%
    22:00 +19°C° 0.1 mm 4 mps 745 mmHg 64%
    23:00 +19°C° 0.1 mm 3 mps 745 mmHg 66%

    Day after tomorrow, 23 October, Monday

    Time Temperature Precipitation Wind Pressure Humidity
    00:00 +19°C° 0.1 mm 3 mps 745 mmHg 69%
    01:00 +19°C° 0.9 mm 3 mps 744 mmHg 73%
    02:00 +19°C° 0.9 mm 3 mps 744 mmHg 78%
    03:00 +18°C° 0.9 mm 3 mps 744 mmHg 83%
    04:00 +18°C° 1.8 mm 3 mps 743 mmHg 86%
    05:00 +18°C° 1.8 mm 3 mps 742 mmHg 89%
    06:00 +17°C° 1.8 mm 3 mps 742 mmHg 93%
    07:00 +18°C° 1.4 mm 3 mps 742 mmHg 92%
    08:00 +18°C° 1.4 mm 2 mps 742 mmHg 92%
    09:00 +19°C° 1.4 mm 2 mps 741 mmHg 91%
    10:00 +19°C° 2.2 mm 2 mps 740 mmHg 90%
    11:00 +19°C° 2.2 mm 3 mps 739 mmHg 90%
    12:00 +19°C° 2.2 mm 3 mps 738 mmHg 89%
    13:00 +19°C° 0.3 mm 4 mps 738 mmHg 90%
    14:00 +17°C° 0.3 mm 5 mps 738 mmHg 90%
    15:00 +16°C° 0.3 mm 6 mps 738 mmHg 90%
    16:00 +16°C° 0.3 mm 5 mps 738 mmHg 90%
    17:00 +15°C° 0.3 mm 5 mps 738 mmHg 89%
    18:00 +14°C° 0.3 mm 4 mps 739 mmHg 88%
    19:00 +13°C° 0.1 mm 4 mps 739 mmHg 87%
    20:00 +13°C° 0.1 mm 4 mps 739 mmHg 85%
    21:00 +12°C° 0.1 mm 4 mps 739 mmHg 83%
    22:00 +11°C° 0 mm 3 mps 739 mmHg 83%
    23:00 +10°C° 0 mm 3 mps 739 mmHg 83%

    24 October, Tuesday

    Time Temperature Precipitation Wind Pressure Humidity
    00:00 +9°C° 0 mm 3 mps 739 mmHg 82%
    01:00 +9°C° 0.1 mm 3 mps 738 mmHg 83%
    02:00 +9°C° 0.1 mm 3 mps 738 mmHg 83%
    03:00 +8°C° 0.1 mm 4 mps 738 mmHg 83%
    04:00 +9°C° 0.3 mm 3 mps 738 mmHg 86%
    05:00 +9°C° 0.3 mm 3 mps 738 mmHg 88%
    06:00 +9°C° 0.3 mm 3 mps 739 mmHg 91%
    07:00 +10°C° 0 mm 3 mps 739 mmHg 86%
    08:00 +11°C° 0 mm 4 mps 739 mmHg 81%
    09:00 +12°C° 0 mm 5 mps 740 mmHg 75%
    10:00 +12°C° 0 mm 5 mps 740 mmHg 69%
    11:00 +13°C° 0 mm 6 mps 740 mmHg 62%
    12:00 +13°C° 0 mm 6 mps 740 mmHg 56%
    13:00 +13°C° 0 mm 6 mps 740 mmHg 54%
    14:00 +11°C° 0 mm 6 mps 740 mmHg 53%
    15:00 +12°C° 0 mm 5 mps 740 mmHg 52%
    16:00 +10°C° 0 mm 5 mps 740 mmHg 56%
    17:00 +10°C° 0 mm 4 mps 741 mmHg 59%
    18:00 +8°C° 0 mm 3 mps 741 mmHg 63%
    19:00 +8°C° 0 mm 3 mps 741 mmHg 67%
    20:00 +8°C° 0 mm 3 mps 741 mmHg 71%
    21:00 +7°C° 0 mm 3 mps 741 mmHg 75%
    22:00 +7°C° 0 mm 3 mps 741 mmHg 77%
    23:00 +5°C° 0 mm 3 mps 740 mmHg 79%

    25 October, Wednesday

    Time Temperature Precipitation Wind Pressure Humidity
    00:00 +5°C° 0 mm 3 mps 740 mmHg 81%
    01:00 +5°C° 0.1 mm 3 mps 740 mmHg 82%
    02:00 +5°C° 0.1 mm 4 mps 740 mmHg 83%
    03:00 +5°C° 0.1 mm 4 mps 739 mmHg 84%
    04:00 +5°C° 0.1 mm 4 mps 739 mmHg 84%
    05:00 +5°C° 0.1 mm 4 mps 739 mmHg 85%
    06:00 +5°C° 0.1 mm 4 mps 739 mmHg 85%
    07:00 +5°C° 0 mm 4 mps 739 mmHg 82%
    08:00 +6°C° 0 mm 4 mps 739 mmHg 79%
    09:00 +6°C° 0 mm 4 mps 739 mmHg 76%
    10:00 +7°C° 0 mm 4 mps 739 mmHg 70%
    11:00 +8°C° 0 mm 4 mps 739 mmHg 65%
    12:00 +9°C° 0 mm 5 mps 738 mmHg 59%
    13:00 +8°C° 0 mm 4 mps 738 mmHg 59%
    14:00 +8°C° 0 mm 4 mps 738 mmHg 58%
    15:00 +8°C° 0 mm 4 mps 739 mmHg 58%
    16:00 +7°C° 0 mm 4 mps 739 mmHg 60%
    17:00 +7°C° 0 mm 3 mps 739 mmHg 63%
    18:00 +6°C° 0 mm 2 mps 740 mmHg 66%
    19:00 +5°C° 0 mm 2 mps 740 mmHg 69%
    20:00 +5°C° 0 mm 2 mps 740 mmHg 72%
    21:00 +4°C° 0 mm 2 mps 741 mmHg 75%
    22:00 +4°C° 0 mm 2 mps 741 mmHg 78%
    23:00 +4°C° 0 mm 1 mps 741 mmHg 80%

    26 October, Thursday

    Time Temperature Precipitation Wind Pressure Humidity
    00:00 +4°C° 0 mm 1 mps 741 mmHg 82%
    01:00 +4°C° 0 mm 1 mps 741 mmHg 84%
    02:00 +3°C° 0 mm 1 mps 741 mmHg 85%
    03:00 +3°C° 0 mm 1 mps 742 mmHg 87%
    04:00 +3°C° 0 mm 1 mps 742 mmHg 88%
    05:00 +3°C° 0 mm 1 mps 742 mmHg 88%
    06:00 +3°C° 0 mm 1 mps 743 mmHg 89%
    07:00 +5°C° 0 mm 1 mps 743 mmHg 80%
    08:00 +6°C° 0 mm 2 mps 743 mmHg 71%
    09:00 +8°C° 0 mm 2 mps 744 mmHg 63%
    10:00 +9°C° 0 mm 3 mps 743 mmHg 59%
    11:00 +11°C° 0 mm 3 mps 743 mmHg 54%
    12:00 +13°C° 0 mm 3 mps 743 mmHg 50%
    13:00 +13°C° 0 mm 3 mps 743 mmHg 52%
    14:00 +13°C° 0 mm 3 mps 742 mmHg 53%
    15:00 +14°C° 0 mm 3 mps 742 mmHg 55%
    16:00 +12°C° 0 mm 3 mps 742 mmHg 63%
    17:00 +11°C° 0 mm 3 mps 742 mmHg 71%
    18:00 +9°C° 0 mm 3 mps 742 mmHg 79%
    19:00 +9°C° 0 mm 3 mps 742 mmHg 78%
    20:00 +8°C° 0 mm 4 mps 742 mmHg 78%
    21:00 +8°C° 0 mm 4 mps 741 mmHg 78%
    22:00 +8°C° 0 mm 4 mps 741 mmHg 76%
    23:00 +10°C° 0 mm 4 mps 741 mmHg 75%
    Show more